Middletown, OH

8:54 AM EDT on June 25, 2017 (GMT -0400)
Hook Field Municipal

Weather History for KMWO - August, 2014

Change the Weather History Date:

Tuesday, August 26, 2014

  Actual Average (KFFO) Record (KFFO)
Temperature  
Mean Temperature 80 °F -  
Max Temperature 91 °F 80 °F 91 °F (2003)
Min Temperature 69 °F 59 °F 55 °F (2008)
Cooling Degree Days 15    
Growing Degree Days 30 (Base 50)    
Moisture  
Dew Point 69 °F    
Average Humidity 72    
Maximum Humidity 89    
Minimum Humidity 45    
Precipitation  
Precipitation 0.00 in - - ()
Sea Level Pressure  
Sea Level Pressure 30.11 in    
Wind  
Wind Speed 1 mph (NW)    
Max Wind Speed 10 mph    
Max Gust Speed -    
Visibility 8 miles    
Events      
Averages and records for this station are not official NWS values.
T = Trace of Precipitation, MM = Missing Value Source: NWS Daily Summary

Daily Weather History Graph

Daily Weather History Graph

Search for Another Location

Airport or City:

Trip Planner

Search our weather history database for the weather conditions in past years. The results will help you decide how hot, cold, wet, or windy it might be!

Date:

Astronomy

Aug. 26, 2014 Rise Set
Actual Time 7:00 AM EDT 8:17 PM EDT
Civil Twilight 6:32 AM EDT 8:45 PM EDT
Nautical Twilight 5:58 AM EDT 9:18 PM EDT
Astronomical Twilight 5:23 AM EDT 9:53 PM EDT
Moon 7:59 AM EDT (8/26) 8:39 PM EDT (8/26)
Length of Visible Light 14h 13m
Length of Day
13h 17m
New Moon, 1% of the Moon is Illuminated
Aug 26
New Moon
Sep 2
First Quarter
Sep 8
Full
Sep 15
Last Quarter
Sep 24
New

Hourly Weather History & Observations

Time (EDT) Temp. Heat Index Dew Point Humidity Pressure Visibility Wind Dir Wind Speed Gust Speed Precip Events Conditions
12:15 AM 74.5 °F - 68.5 °F 82% 30.09 in 10.0 mi Calm Calm - N/A   Clear
12:35 AM 74.5 °F - 69.4 °F 84% 30.09 in 10.0 mi Calm Calm - N/A   Clear
12:55 AM 74.5 °F - 70.2 °F 86% 30.10 in 7.0 mi Calm Calm - N/A   Clear
1:15 AM 74.5 °F - 70.3 °F 87% 30.10 in 7.0 mi Calm Calm - N/A   Clear
1:35 AM 74.5 °F - 70.3 °F 87% 30.10 in 10.0 mi Calm Calm - N/A   Clear
1:55 AM 74.5 °F - 70.3 °F 87% 30.10 in 7.0 mi Calm Calm - N/A   Clear
2:15 AM 72.1 °F - 68.4 °F 88% 30.10 in 5.0 mi Calm Calm - N/A   Clear
2:35 AM 72.1 °F - 68.5 °F 88% 30.09 in 4.0 mi Calm Calm - N/A   Clear
2:55 AM 70.5 °F - 66.9 °F 88% 30.09 in 5.0 mi Calm Calm - N/A   Clear
3:15 AM 70.5 °F - 67.1 °F 89% 30.09 in 5.0 mi Calm Calm - N/A   Clear
3:35 AM 69.6 °F - 66.4 °F 89% 30.08 in 2.0 mi Calm Calm - N/A   Clear
3:55 AM 69.4 °F - 66.2 °F 89% 30.09 in 5.0 mi Calm Calm - N/A   Clear
4:15 AM 69.4 °F - 66.2 °F 89% 30.09 in 3.0 mi Calm Calm - N/A   Clear
4:35 AM 69.4 °F - 66.2 °F 89% 30.10 in 4.0 mi Calm Calm - N/A   Clear
4:55 AM 69.4 °F - 66.2 °F 89% 30.10 in 3.0 mi Calm Calm - N/A   Clear
5:15 AM 69.4 °F - 66.2 °F 89% 30.10 in 1.0 mi Calm Calm - N/A   Mist
5:35 AM 69.4 °F - 66.2 °F 89% 30.11 in 4.0 mi Calm Calm - N/A   Clear
5:55 AM 69.4 °F - 66.2 °F 89% 30.11 in 5.0 mi Calm Calm - N/A   Clear
6:15 AM 69.4 °F - 66.2 °F 89% 30.11 in 4.0 mi Calm Calm - N/A   Clear
6:35 AM 69.4 °F - 66.2 °F 89% 30.11 in 3.0 mi Calm Calm - N/A   Clear
6:55 AM 69.4 °F - 66.2 °F 89% 30.12 in 3.0 mi Calm Calm - N/A   Clear
7:15 AM 69.4 °F - 66.2 °F 89% 30.13 in 4.0 mi Calm Calm - N/A   Clear
7:35 AM 69.4 °F - 66.2 °F 89% 30.14 in 4.0 mi Calm Calm - N/A   Clear
7:55 AM 69.4 °F - 66.2 °F 89% 30.15 in 4.0 mi Calm Calm - N/A   Clear
8:15 AM 72.1 °F - 68.9 °F 89% 30.15 in 5.0 mi Calm Calm - N/A   Clear
8:35 AM 74.5 °F - 70.9 °F 88% 30.15 in 7.0 mi Calm Calm - N/A   Clear
8:55 AM 74.5 °F - 70.0 °F 86% 30.16 in 7.0 mi Calm Calm - N/A   Clear
9:15 AM 77.2 °F - 68.5 °F 75% 30.16 in 10.0 mi Calm Calm - N/A   Clear
9:55 AM 79.7 °F - 66.9 °F 65% 30.16 in 10.0 mi WSW 4.6 mph - N/A   Clear
10:55 AM 82.2 °F 84.9 °F 67.5 °F 61% 30.17 in 10.0 mi South 5.8 mph - N/A   Clear
11:15 AM 82.4 °F 84.8 °F 66.9 °F 59% 30.17 in 10.0 mi South 3.5 mph - N/A   Scattered Clouds
11:35 AM 83.5 °F 86.0 °F 66.9 °F 57% 30.17 in 10.0 mi SW 5.8 mph - N/A   Clear
11:55 AM 86.0 °F 89.7 °F 68.5 °F 56% 30.17 in 10.0 mi Calm Calm - N/A   Clear
12:15 PM 87.3 °F 92.0 °F 69.6 °F 56% 30.16 in 10.0 mi SW 3.5 mph - N/A   Clear
12:35 PM 89.8 °F 96.5 °F 71.6 °F 55% 30.16 in 10.0 mi Calm Calm - N/A   Clear
12:55 PM 89.8 °F 96.0 °F 71.1 °F 54% 30.15 in 10.0 mi Calm Calm - N/A   Clear
1:15 PM 89.8 °F 96.0 °F 70.9 °F 54% 30.15 in 10.0 mi Calm Calm - N/A   Clear
1:35 PM 89.8 °F 96.0 °F 70.9 °F 54% 30.14 in 10.0 mi SSE 3.5 mph - N/A   Clear
1:55 PM 89.8 °F 95.6 °F 70.3 °F 53% 30.14 in 10.0 mi Calm Calm - N/A   Scattered Clouds
2:15 PM 89.8 °F 95.1 °F 69.8 °F 52% 30.13 in 10.0 mi West 3.5 mph - N/A   Scattered Clouds
2:35 PM 89.8 °F 93.8 °F 68.5 °F 49% 30.13 in 10.0 mi West 3.5 mph - N/A   Scattered Clouds
2:55 PM 90.3 °F 93.9 °F 67.3 °F 47% 30.11 in 10.0 mi NW 3.5 mph - N/A   Clear
3:15 PM 90.1 °F 93.1 °F 67.1 °F 46% 30.10 in 10.0 mi NNW 3.5 mph - N/A   Clear
3:35 PM 89.8 °F 92.1 °F 65.7 °F 45% 30.10 in 10.0 mi Calm Calm - N/A   Scattered Clouds
3:55 PM 90.0 °F 93.6 °F 67.8 °F 48% 30.10 in 10.0 mi ESE 3.5 mph - N/A   Scattered Clouds
4:15 PM 89.8 °F 93.8 °F 68.4 °F 49% 30.10 in 10.0 mi Calm Calm - N/A   Scattered Clouds
4:35 PM 90.9 °F 95.3 °F 68.7 °F 48% 30.10 in 10.0 mi NNW 4.6 mph - N/A   Clear
4:55 PM 91.8 °F 95.5 °F 67.8 °F 45% 30.09 in 10.0 mi Calm Calm - N/A   Clear
5:15 PM 91.0 °F 95.6 °F 68.7 °F 48% 30.08 in 10.0 mi NNE 4.6 mph - N/A   Clear
5:35 PM 91.0 °F 95.2 °F 68.0 °F 47% 30.08 in 10.0 mi North 5.8 mph - N/A   Clear
5:55 PM 90.9 °F 94.8 °F 68.2 °F 47% 30.09 in 10.0 mi Calm Calm - N/A   Clear
6:15 PM 89.8 °F 93.8 °F 68.4 °F 49% 30.09 in 10.0 mi Calm Calm - N/A   Clear
6:35 PM 89.8 °F 95.6 °F 70.5 °F 53% 30.10 in 10.0 mi NNW 6.9 mph - N/A   Clear
6:55 PM 89.8 °F 96.5 °F 71.8 °F 55% 30.09 in 10.0 mi NNW 4.6 mph - N/A   Mostly Cloudy
7:15 PM 83.5 °F 86.7 °F 68.4 °F 60% 30.09 in 10.0 mi North 10.4 mph - N/A   Mostly Cloudy
7:35 PM 82.4 °F 85.4 °F 68.4 °F 62% 30.08 in 10.0 mi NNE 3.5 mph - N/A   Scattered Clouds
7:55 PM 81.0 °F 83.9 °F 68.7 °F 66% 30.08 in 10.0 mi ENE 3.5 mph - N/A   Clear
8:15 PM 79.7 °F - 70.0 °F 72% 30.08 in 10.0 mi Calm Calm - N/A   Clear
8:35 PM 77.2 °F - 70.7 °F 80% 30.08 in 10.0 mi Calm Calm - N/A   Clear
8:55 PM 78.1 °F - 70.5 °F 77% 30.06 in 10.0 mi SSE 6.9 mph - N/A   Clear
9:15 PM 81.1 °F 84.5 °F 69.8 °F 68% 30.07 in 10.0 mi Calm Calm - N/A   Clear
9:35 PM 77.2 °F - 71.2 °F 82% 30.08 in 10.0 mi NNW 3.5 mph - N/A   Clear
9:55 PM 77.2 °F - 71.2 °F 82% 30.09 in 10.0 mi North 3.5 mph - N/A   Clear
10:15 PM 77.2 °F - 71.2 °F 82% 30.09 in 10.0 mi Calm Calm - N/A   Clear
10:35 PM 76.6 °F - 70.9 °F 82% 30.10 in 10.0 mi Calm Calm - N/A   Clear
11:15 PM 74.5 °F - 69.6 °F 85% 30.11 in 10.0 mi Calm Calm - N/A   Clear
11:35 PM 74.5 °F - 69.3 °F 84% 30.11 in 10.0 mi Calm Calm - N/A   Clear
11:55 PM 74.5 °F - 69.8 °F 85% 30.10 in 7.0 mi Calm Calm - N/A   Clear